Simultaneous Nadir Overpasses (SNOs) Predictions

Prediction of SNOs between NPP and TERRA Satellite Orbit:

Table of predicted SNOs for the next 14.0 days since TLE Epoch: 6/14/2015
Index Date (NPP) Time (NPP) Lat,Lon (NPP) SZA (NPP ) Date (TERRA) Time (TERRA) Lat,Lon (TERRA) SZA (TERRA ) Distance(km) Time Diff (sec)
1 06/14/2015 15:55:01 -69.39, 119.78 133.98 06/14/2015 15:56:11 -69.31, 120.91 134.07 45.49 70
2 06/14/2015 16:45:36 68.78, -72.08 45.40 06/14/2015 16:45:46 68.76, -72.14 45.39 3.00 10
3 06/14/2015 17:36:17 -68.65, 95.42 134.74 06/14/2015 17:35:16 -68.65, 95.35 134.73 2.62 61
4 06/17/2015 08:11:46 -68.91,-123.79 134.57 06/17/2015 08:12:48 -68.90,-123.74 134.59 2.29 62
5 06/17/2015 09:02:29 68.73, 43.76 45.25 06/17/2015 09:02:16 68.73, 43.70 45.25 2.28 13
6 06/17/2015 09:53:03 -68.22,-148.26 135.27 06/17/2015 09:51:52 -68.29,-149.21 135.19 39.92 71
7 06/20/2015 00:28:39 -68.86, -7.96 134.68 06/20/2015 00:29:18 -68.85, -7.92 134.69 1.64 39
8 06/20/2015 01:19:22 68.68, 159.58 45.15 06/20/2015 01:18:46 68.68, 159.52 45.15 2.57 36
9 06/22/2015 15:55:00 69.44, -60.32 45.92 06/22/2015 15:56:10 69.33, -59.05 45.79 51.08 70
10 06/22/2015 16:45:32 -68.81, 107.87 134.73 06/22/2015 16:45:48 -68.79, 107.88 134.76 3.06 16
11 06/22/2015 17:36:15 68.65, -84.60 45.11 06/22/2015 17:35:15 68.67, -84.62 45.13 2.86 60
12 06/25/2015 08:11:42 68.87, 56.24 45.38 06/25/2015 08:12:46 68.85, 56.22 45.36 2.25 64
13 06/25/2015 09:02:24 -68.77,-136.31
